This is the latest recevied weather packets stored in our database for station/object W4BOD. If no packets are shown the sender has not sent any weather packets the latest 10 day(s).
| Time | Temp. | Humidity | Pressure | Rain* | Wind** | Luminosity | Snow |
|---|---|---|---|---|---|---|---|
| 1776946585 | 13.89° C | 97% | 1018.5 hPa | 0 mm | - | 45 W/m² | - |
| 1776946283 | 13.33° C | 98% | 1018.5 hPa | 0 mm | - | 43 W/m² | - |
| 1776945981 | 13.33° C | 98% | 1018.6 hPa | 0 mm | - | 40 W/m² | - |
| 1776945676 | 13.33° C | 99% | 1018.4 hPa | 0 mm | - | 38 W/m² | - |
| 1776945373 | 13.33° C | 99% | 1018.5 hPa | 0 mm | - | 36 W/m² | - |
| 1776945068 | 13.33° C | 99% | 1018.5 hPa | 0 mm | - | 33 W/m² | - |
| 1776944764 | 12.78° C | 99% | 1018.5 hPa | 0 mm | - | 37 W/m² | - |
| 1776944461 | 12.22° C | 99% | 1018.3 hPa | 0 mm | - | 29 W/m² | - |
| 1776944156 | 12.22° C | 99% | 1018.6 hPa | 0 mm | - | 24 W/m² | - |
| 1776943852 | 12.22° C | 99% | 1018.2 hPa | 0 mm | - | 20 W/m² | - |
| 1776943547 | 11.67° C | 99% | 1018.3 hPa | 0 mm | - | 16 W/m² | - |
| 1776943244 | 12.22° C | 99% | 1018.2 hPa | 0 mm | - | 13 W/m² | - |
| 1776942940 | 11.67° C | 99% | 1018.3 hPa | 0 mm | - | 9 W/m² | - |
| 1776942636 | 11.67° C | 99% | 1018.1 hPa | 0 mm | - | 6 W/m² | - |
| 1776942333 | 11.67° C | 99% | 1018.1 hPa | 0 mm | - | 4 W/m² | - |
| 1776942030 | 11.67° C | 99% | 1018 hPa | 0 mm | - | 2 W/m² | - |
| 1776941727 | 11.67° C | 99% | 1018 hPa | 0 mm | - | 1 W/m² | - |
| 1776941423 | 11.67° C | 99% | 1017.9 hPa | 0 mm | - | 0 W/m² | - |
| 1776941123 | 11.67° C | 99% | 1018 hPa | 0 mm | - | 0 W/m² | - |
| 1776940819 | 12.22° C | 99% | 1017.9 hPa | 0 mm | - | 0 W/m² | - |
| 1776940516 | 12.22° C | 99% | 1018 hPa | 0 mm | - | 0 W/m² | - |
| 1776940212 | 12.22° C | 99% | 1017.6 hPa | 0 mm | - | 0 W/m² | - |
| 1776939909 | 12.22° C | 99% | 1017.9 hPa | 0 mm | - | 0 W/m² | - |
| 1776939605 | 12.22° C | 99% | 1017.9 hPa | 0 mm | - | 0 W/m² | - |
| 1776939304 | 12.22° C | 99% | 1017.7 hPa | 0 mm | - | 0 W/m² | - |
* Rain latest hour (hover to see other rain measurements)
** Current wind speed in m/s (hover to see current wind gust speed)